Regional Weather Roundup
Issued by NWS Columbia, SC

Home | Current Version | Previous Version | Text Only | Print | Product List | Glossary On
Versions: 1 2 3 4 5 6 7 8 9 10 11 12 13 14 15 16 17 18 19 20 21 22 23 24 25 26 27 28 29 30 31 32 33 34 35 36 37 38 39 40 41 42 43 44 45 46 47 48 49 50
000
ASUS42 KCAE 290810
RWRCAE
REGIONAL WEATHER ROUNDUP
NATIONAL WEATHER SERVICE COLUMBIA SC
400 AM EDT TUE JUL 29 2014

NOTE: "FAIR" INDICATES FEW OR NO CLOUDS BELOW 12,000 FEET WITH NO
SIGNIFICANT WEATHER AND/OR OBSTRUCTIONS TO VISIBILITY.

NOT ALL STATIONS ARE QUALITY CONTROLLED BY THE NATIONAL
WEATHER SERVICE. USE DATA WITH CAUTION...ESPECIALLY
DEWPOINT OBSERVATIONS.

SCZ001>056-GAZ040-063>065-077-290900-
...UPSTATE SOUTH CAROLINA...

CITY           SKY/WX    TMP DP  RH WIND       PRES   REMARKS
ANDERSON       CLEAR     65  60  84 NW3       29.92F
LIBERTY        FAIR      60  32  35 CALM      29.93S
SPARTANBURG    FAIR      64  61  88 CALM      29.91F
CLEMSON        CLEAR     70  58  65 NW5       29.94F
GREENVILLE     CLEAR     69  57  65 N5        29.94S
GREENWOOD      PTCLDY    66  60  81 CALM      29.93S
GREER          CLEAR     67  58  72 NW3       29.92S
ROCK HILL      MOCLDY    65  59  81 N5        29.91S
CHESTER        FAIR      70  61  73 NW5       29.92S
LAURENS        FAIR      64  64 100 CALM      29.93R


...CENTRAL SOUTH CAROLINA...

CITY           SKY/WX    TMP DP  RH WIND       PRES   REMARKS
COLUMBIA APT   CLEAR     75  58  55 N5        29.87S
COLUMBIA OWENS PTCLDY    73  58  59 CALM      29.89S
DARLINGTON     CLEAR     70  59  68 N5        29.89R
FLORENCE       PTCLDY    72  61  68 N8        29.87R
MCENTIRE ANGB  CLEAR     71  59  65 N6        29.88S
ORANGEBURG     CLEAR     74  60  61 N7        29.87S
SUMTER SHAW    PTCLDY    72  60  66 N7        29.86R
NEWBERRY       FAIR      68  61  77 N3        29.93S
AIKEN          FAIR      70  61  73 N6        29.93R
BARNWELL       FAIR      70  61  73 NW3       29.88S
MANNING        FAIR      72  63  73 N3        29.87R
CAMDEN         PTSUNNY   68  59  73 CALM      29.89S
LANCASTER      FAIR      68  63  83 CALM      29.90S
WINNSBORO      FAIR      68  59  73 N6        29.89F


...EASTERN AND COASTAL SOUTH CAROLINA...

CITY           SKY/WX    TMP DP  RH WIND       PRES   REMARKS
MYRTLE BEACH   PTCLDY    73  68  83 N9        29.84R
N MYRTLE BCH   PTCLDY    73  68  84 N7        29.84R
CONWAY         FAIR      72  70  94 N3        29.85R
MARION         PTSUNNY   72  61  68 N3        29.87R
HARTSVILLE     FAIR      72  41  33 N5        29.89S
FLORENCE       PTCLDY    72  61  68 N8        29.87R
DARLINGTON     CLEAR     70  59  68 N5        29.89R
CHARLESTON APT CLEAR     73  65  75 N7        29.84S
MOUNT PLEASANT FAIR      75  66  73 CALM      29.84S
WALTERBORO     SUNNY     73  63  68 NW3       29.86S
BEAUFORT       CLEAR     77  69  76 N6        29.85R


...EASTERN GEORGIA...

CITY           SKY/WX    TMP DP  RH WIND       PRES   REMARKS
AUGUSTA BUSH F CLEAR     66  62  87 CALM      29.88F
AUGUSTA DANIEL CLEAR     74  60  61 N7        29.90F
THOMSON        CLEAR     66  66 100 NW3       29.95F
WASHINGTON     FAIR      70  64  83 NW5       29.92S
CLAXTON        FAIR      72  72 100 CALM      29.88S
SYLVANIA       MOSUNNY   71  69  93 NW3       29.88S
STATESBORO     CLEAR     69  69 100 NW5       29.88R
SAVANNAH       PTCLDY    76  68  76 NW3       29.86S


...SOUTHERN NORTH CAROLINA...

CITY           SKY/WX    TMP DP  RH WIND       PRES   REMARKS
CHARLOTTE      MOCLDY    66  55  67 N6        29.91S
MONROE         CLEAR     69  55  60 N6        29.90R
WADESBORO      PTSUNNY   65  61  86 CALM      29.89R
ROCKINGHAM       N/A     70  61  73 CALM      29.89R
RUTHERFORDTON  CLEAR     64  58  80 N5        29.94S
ASHEVILLE      CLEAR     61  57  87 N5        30.00F

$$



USA.gov is the U.S. government's official web portal to all federal, state and local government web resources and services.